| time (UTC) | temp C | wind direction | speed KPH | gust KPH | rain 1hr cm | rain 24hr cm | rain mn cm | humidity % | barometer mb |
| 20260507130738 | 11 | 22 | 0.0 | 0.0 | 0.00 | 0.61 | 0.10 | 79 | 1015.6 |
| 20260507125739 | 11 | 22 | 0.0 | 0.0 | 0.00 | 0.61 | 0.10 | 79 | 1015.5 |
| 20260507124739 | 11 | 22 | 0.0 | 0.0 | 0.00 | 0.64 | 0.10 | 79 | 1015.5 |
| 20260507122742 | 11 | 67 | 0.0 | 0.0 | 0.00 | 0.64 | 0.10 | 86 | 1015.6 |
| 20260507121740 | 12 | 292 | 0.0 | 0.0 | 0.00 | 0.66 | 0.10 | 91 | 1015.4 |
| 20260507121637 | 12 | 292 | 0.0 | 0.0 | 0.00 | 0.66 | 0.10 | 91 | 1015.4 |
| 20260507120638 | 12 | 270 | 0.0 | 0.0 | 0.00 | 0.69 | 0.10 | 92 | 1015.3 |
| 20260507115638 | 12 | 22 | 0.0 | 0.0 | 0.00 | 0.69 | 0.10 | 94 | 1015.3 |
| 20260507114638 | 12 | 112 | 0.0 | 0.0 | 0.00 | 0.69 | 0.10 | 94 | 1015.1 |
| 20260507113639 | 11 | 112 | 0.0 | 0.0 | 0.00 | 0.69 | 0.10 | 94 | 1015.0 |
| 20260507112637 | 11 | 22 | 0.0 | 1.6 | 0.00 | 0.69 | 0.10 | 94 | 1015.0 |
| 20260507111639 | 11 | 360 | 0.0 | 0.0 | 0.00 | 0.69 | 0.10 | 94 | 1015.1 |
| 20260507110639 | 11 | 360 | 0.0 | 0.0 | 0.00 | 0.69 | 0.10 | 94 | 1014.8 |
| 20260507110537 | 11 | 360 | 0.0 | 0.0 | 0.00 | 0.69 | 0.10 | 94 | 1014.7 |
| 20260507105540 | 11 | 360 | 0.0 | 0.0 | 0.00 | 0.69 | 0.10 | 94 | 1015.0 |
| 20260507104538 | 11 | 360 | 0.0 | 0.0 | 0.00 | 0.69 | 0.10 | 94 | 1014.7 |
| 20260507094638 | 11 | 360 | 0.0 | 0.0 | 0.00 | 0.69 | 0.10 | 94 | 1014.4 |
| 20260507093737 | 11 | 360 | 0.0 | 0.0 | 0.00 | 0.69 | 0.10 | 94 | 1014.4 |
| 20260507092736 | 11 | 360 | 0.0 | 0.0 | 0.00 | 0.69 | 0.10 | 94 | 1014.3 |
| 20260507091738 | 11 | 360 | 0.0 | 0.0 | 0.00 | 0.69 | 0.10 | 94 | 1014.1 |
| 20260507085839 | 12 | 360 | 0.0 | 0.0 | 0.00 | 0.69 | 0.10 | 94 | 1014.4 |
| 20260507084838 | 12 | 360 | 0.0 | 0.0 | 0.03 | 0.69 | 0.10 | 94 | 1014.2 |
| 20260507083937 | 12 | 360 | 0.0 | 0.0 | 0.03 | 0.69 | 0.10 | 94 | 1013.9 |
| 20260507082936 | 12 | 360 | 0.0 | 0.0 | 0.03 | 0.69 | 0.10 | 94 | 1014.2 |
| 20260507081936 | 12 | 360 | 0.0 | 0.0 | 0.03 | 0.69 | 0.10 | 94 | 1014.0 |
| 20260507080936 | 12 | 360 | 0.0 | 0.0 | 0.03 | 0.69 | 0.10 | 94 | 1013.8 |
| 20260507075936 | 12 | 360 | 0.0 | 0.0 | 0.03 | 0.69 | 0.10 | 94 | 1013.6 |
| 20260507074937 | 12 | 360 | 0.0 | 0.0 | 0.00 | 0.66 | 0.08 | 94 | 1013.5 |
| 20260507072937 | 12 | 292 | 0.0 | 0.0 | 0.00 | 0.66 | 0.08 | 93 | 1013.2 |
| 20260507071036 | 12 | 292 | 0.0 | 0.0 | 0.00 | 0.66 | 0.08 | 94 | 1013.2 |
| 20260507070037 | 12 | 292 | 0.0 | 0.0 | 0.00 | 0.66 | 0.08 | 94 | 1013.3 |
| 20260507065055 | 12 | 292 | 0.0 | 0.0 | 0.00 | 0.66 | 0.08 | 94 | 1013.1 |
| 20260507063038 | 12 | 270 | 0.0 | 0.0 | 0.03 | 0.66 | 0.08 | 93 | 1013.5 |
| 20260507062137 | 12 | 348 | 0.0 | 0.0 | 0.03 | 0.66 | 0.08 | 93 | 1013.4 |
| 20260507061139 | 12 | 22 | 0.0 | 0.0 | 0.03 | 0.66 | 0.08 | 92 | 1013.3 |
| 20260507060139 | 12 | 22 | 0.0 | 0.0 | 0.03 | 0.66 | 0.08 | 92 | 1013.1 |
| 20260507055139 | 13 | 21 | 0.0 | 1.6 | 0.03 | 0.66 | 0.08 | 91 | 1013.3 |
| 20260507054139 | 13 | 339 | 0.0 | 1.6 | 0.03 | 0.64 | 0.05 | 90 | 1013.4 |
| 20260507053236 | 13 | 315 | 0.0 | 0.0 | 0.03 | 0.64 | 0.05 | 90 | 1013.5 |
| 20260507052239 | 13 | 337 | 0.0 | 0.0 | 0.05 | 0.64 | 0.05 | 89 | 1013.4 |
| 20260507052137 | 13 | 337 | 0.0 | 0.0 | 0.05 | 0.64 | 0.05 | 89 | 1013.3 |
| 20260507051138 | 13 | 315 | 0.0 | 0.0 | 0.05 | 0.64 | 0.05 | 89 | 1012.9 |
| 20260507050236 | 13 | 315 | 0.0 | 0.0 | 0.05 | 0.64 | 0.05 | 88 | 1013.6 |
| 20260507045239 | 14 | 315 | 0.0 | 0.0 | 0.05 | 0.64 | 0.05 | 86 | 1013.5 |
| 20260507044237 | 15 | 292 | 0.0 | 0.0 | 0.05 | 0.64 | 0.03 | 85 | 1013.8 |
| 20260507043236 | 15 | 292 | 0.0 | 0.0 | 0.03 | 0.61 | 0.00 | 83 | 1013.4 |
| 20260507042238 | 16 | 315 | 0.0 | 0.0 | 0.00 | 0.58 | 0.00 | 80 | 1013.7 |
| 20260507041335 | 16 | 315 | 0.0 | 0.0 | 0.00 | 0.58 | 0.00 | 79 | 1013.4 |
| 20260507040335 | 16 | 315 | 0.0 | 1.6 | 0.00 | 0.58 | 0.00 | 80 | 1013.4 |
| 20260507035340 | 16 | 292 | 0.0 | 1.6 | 0.00 | 0.58 | 0.58 | 79 | 1013.0 |
| 20260507034340 | 16 | 315 | 0.0 | 0.0 | 0.00 | 0.58 | 0.58 | 77 | 1013.0 |
| 20260507033342 | 16 | 1 | 0.0 | 6.4 | 0.00 | 0.58 | 0.58 | 77 | 1013.2 |
| 20260507032342 | 17 | 315 | 0.0 | 1.6 | 0.00 | 0.58 | 0.58 | 77 | 1013.0 |
| 20260507031441 | 17 | 60 | 0.0 | 6.4 | 0.00 | 0.58 | 0.58 | 77 | 1013.0 |
| 20260507030442 | 17 | 270 | 0.0 | 0.0 | 0.00 | 0.58 | 0.58 | 78 | 1012.4 |
| 20260507024442 | 17 | 292 | 0.0 | 3.2 | 0.00 | 0.58 | 0.58 | 81 | 1012.7 |
| 20260507023442 | 17 | 295 | 0.0 | 1.6 | 0.00 | 0.58 | 0.58 | 83 | 1012.6 |
| 20260507022459 | 18 | 292 | 0.0 | 1.6 | 0.00 | 0.58 | 0.58 | 85 | 1012.1 |
| 20260507022341 | 18 | 292 | 0.0 | 3.2 | 0.00 | 0.58 | 0.58 | 85 | 1012.1 |
| 20260507021344 | 18 | 292 | 0.0 | 1.6 | 0.00 | 0.58 | 0.58 | 86 | 1012.1 |
| 20260507020342 | 18 | 292 | 0.0 | 0.0 | 0.00 | 0.58 | 0.58 | 87 | 1012.0 |
| 20260507015343 | 18 | 292 | 0.0 | 0.0 | 0.00 | 0.58 | 0.58 | 87 | 1011.9 |
| 20260507014341 | 18 | 292 | 0.0 | 0.0 | 0.00 | 0.58 | 0.58 | 86 | 1011.8 |
| 20260507013343 | 18 | 292 | 0.0 | 0.0 | 0.00 | 0.58 | 0.58 | 86 | 1012.0 |
| 20260507012343 | 18 | 292 | 0.0 | 0.0 | 0.00 | 0.58 | 0.58 | 85 | 1012.1 |
| 20260507010341 | 18 | 292 | 0.0 | 0.0 | 0.00 | 0.58 | 0.58 | 85 | 1012.1 |
| 20260507005342 | 18 | 292 | 0.0 | 0.0 | 0.00 | 0.58 | 0.58 | 84 | 1012.1 |
| 20260507001442 | 19 | 292 | 0.0 | 0.0 | 0.00 | 0.58 | 0.58 | 82 | 1011.7 |
| 20260507000541 | 19 | 292 | 0.0 | 0.0 | 0.00 | 0.58 | 0.58 | 82 | 1011.5 |
| 20260506234542 | 20 | 292 | 0.0 | 0.0 | 0.00 | 0.58 | 0.58 | 81 | 1011.3 |
| 20260506233542 | 20 | 292 | 0.0 | 1.6 | 0.00 | 0.58 | 0.58 | 81 | 1011.1 |
| 20260506232542 | 20 | 292 | 0.0 | 0.0 | 0.00 | 0.58 | 0.58 | 81 | 1011.1 |
| 20260506231639 | 20 | 202 | 0.0 | 0.0 | 0.00 | 0.58 | 0.58 | 80 | 1011.1 |
| 20260506230642 | 20 | 292 | 0.0 | 0.0 | 0.00 | 0.58 | 0.58 | 80 | 1011.0 |
| 20260506225740 | 20 | 22 | 0.0 | 0.0 | 0.00 | 0.58 | 0.58 | 80 | 1011.0 |
| 20260506224759 | 20 | 180 | 0.0 | 0.0 | 0.00 | 0.58 | 0.58 | 79 | 1010.7 |
| 20260506221841 | 20 | 292 | 0.0 | 0.0 | 0.00 | 0.58 | 0.58 | 79 | 1010.8 |
| 20260506220939 | 20 | 135 | 0.0 | 0.0 | 0.00 | 0.58 | 0.58 | 78 | 1010.6 |
| 20260506215939 | 21 | 179 | 0.0 | 0.0 | 0.00 | 0.58 | 0.58 | 78 | 1010.8 |
| 20260506214940 | 21 | 135 | 0.0 | 8.0 | 0.00 | 0.58 | 0.58 | 77 | 1010.8 |
| 20260506213941 | 21 | 266 | 0.0 | 4.8 | 0.00 | 0.58 | 0.58 | 77 | 1010.7 |
| 20260506212944 | 21 | 21 | 0.0 | 3.2 | 0.00 | 0.58 | 0.58 | 77 | 1010.8 |
| 20260506211941 | 21 | 86 | 0.0 | 1.6 | 0.00 | 0.58 | 0.58 | 76 | 1010.7 |
| 20260506210940 | 21 | 302 | 3.2 | 8.0 | 0.00 | 0.58 | 0.58 | 76 | 1010.6 |
| 20260506205944 | 21 | 198 | 3.2 | 8.0 | 0.00 | 0.58 | 0.58 | 78 | 1010.3 |
| 20260506204942 | 20 | 256 | 0.0 | 1.6 | 0.00 | 0.58 | 0.58 | 78 | 1010.4 |
| 20260506203040 | 20 | 248 | 4.8 | 11.3 | 0.00 | 0.58 | 0.58 | 78 | 1010.3 |
| 20260506202043 | 20 | 187 | 0.0 | 1.6 | 0.00 | 0.58 | 0.58 | 78 | 1010.3 |
| 20260506200141 | 20 | 247 | 0.0 | 1.6 | 0.00 | 0.58 | 0.58 | 78 | 1010.5 |
| 20260506195141 | 20 | 267 | 1.6 | 6.4 | 0.00 | 0.58 | 0.58 | 79 | 1010.5 |
| 20260506194143 | 20 | 245 | 0.0 | 4.8 | 0.00 | 0.58 | 0.58 | 79 | 1010.4 |
| 20260506193142 | 20 | 38 | 0.0 | 3.2 | 0.00 | 0.58 | 0.58 | 80 | 1010.5 |
| 20260506192159 | 20 | 124 | 1.6 | 6.4 | 0.00 | 0.58 | 0.58 | 81 | 1010.5 |
| 20260506185340 | 18 | 258 | 0.0 | 4.8 | 0.00 | 0.58 | 0.58 | 83 | 1010.9 |
| 20260506184341 | 18 | 112 | 0.0 | 1.6 | 0.00 | 0.58 | 0.58 | 83 | 1011.0 |
| 20260506183344 | 18 | 292 | 0.0 | 4.8 | 0.03 | 0.58 | 0.58 | 85 | 1011.2 |
| 20260506182341 | 18 | 284 | 1.6 | 4.8 | 0.03 | 0.58 | 0.58 | 84 | 1011.2 |
| 20260506181343 | 18 | 129 | 1.6 | 6.4 | 0.03 | 0.58 | 0.58 | 85 | 1011.3 |
| 20260506180342 | 18 | 314 | 0.0 | 3.2 | 0.03 | 0.58 | 0.58 | 86 | 1011.5 |
| 20260506180241 | 18 | 291 | 1.6 | 4.8 | 0.03 | 0.58 | 0.58 | 87 | 1011.4 |
| 20260506175243 | 18 | 230 | 0.0 | 3.2 | 0.03 | 0.58 | 0.58 | 88 | 1011.4 |
| 20260506174341 | 17 | 153 | 0.0 | 6.4 | 0.03 | 0.58 | 0.58 | 89 | 1011.6 |
| 20260506173341 | 17 | 253 | 3.2 | 8.0 | 0.00 | 0.56 | 0.56 | 91 | 1011.8 |
| 20260506172342 | 17 | 314 | 0.0 | 3.2 | 0.00 | 0.56 | 0.56 | 91 | 1011.7 |
| 20260506171342 | 17 | 288 | 1.6 | 3.2 | 0.00 | 0.56 | 0.56 | 91 | 1011.7 |
| 20260506170341 | 17 | 127 | 1.6 | 4.8 | 0.00 | 0.56 | 0.56 | 93 | 1012.0 |
| 20260506165342 | 17 | 185 | 0.0 | 3.2 | 0.00 | 0.56 | 0.56 | 94 | 1012.0 |
| 20260506164439 | 17 | 207 | 4.8 | 11.3 | 0.00 | 0.56 | 0.56 | 95 | 1011.8 |
| 20260506163441 | 16 | 169 | 0.0 | 4.8 | 0.00 | 0.56 | 0.56 | 95 | 1011.9 |
| 20260506163342 | 16 | 350 | 0.0 | 6.4 | 0.00 | 0.56 | 0.56 | 95 | 1012.0 |
| 20260506162439 | 16 | 313 | 1.6 | 4.8 | 0.00 | 0.56 | 0.56 | 96 | 1012.0 |
| 20260506161442 | 16 | 55 | 0.0 | 3.2 | 0.00 | 0.56 | 0.56 | 96 | 1012.0 |
| 20260506160443 | 16 | 142 | 1.6 | 4.8 | 0.05 | 0.56 | 0.56 | 96 | 1012.0 |
| 20260506155455 | 16 | 224 | 0.0 | 4.8 | 0.08 | 0.56 | 0.56 | 95 | 1012.1 |
| 20260506155342 | 16 | 224 | 1.6 | 8.0 | 0.08 | 0.56 | 0.56 | 95 | 1012.2 |
| 20260506154344 | 15 | 86 | 0.0 | 3.2 | 0.10 | 0.56 | 0.56 | 95 | 1012.5 |
| 20260506153439 | 15 | 124 | 0.0 | 6.4 | 0.13 | 0.56 | 0.56 | 95 | 1012.6 |
| 20260506151441 | 15 | 177 | 3.2 | 12.9 | 0.15 | 0.56 | 0.53 | 94 | 1012.4 |
| 20260506150441 | 15 | 50 | 0.0 | 1.6 | 0.15 | 0.51 | 0.51 | 94 | 1012.8 |
| 20260506145540 | 15 | 162 | 0.0 | 0.0 | 0.15 | 0.48 | 0.48 | 94 | 1012.9 |
| 20260506145441 | 15 | 198 | 0.0 | 0.0 | 0.15 | 0.48 | 0.48 | 94 | 1013.1 |
| 20260506144441 | 15 | 202 | 0.0 | 0.0 | 0.20 | 0.48 | 0.46 | 93 | 1013.1 |
| 20260506143540 | 15 | 87 | 0.0 | 0.0 | 0.23 | 0.46 | 0.43 | 93 | 1013.1 |
| 20260506142540 | 15 | 84 | 0.0 | 0.0 | 0.25 | 0.43 | 0.43 | 93 | 1013.2 |
| 20260506141540 | 15 | 180 | 0.0 | 0.0 | 0.30 | 0.41 | 0.41 | 92 | 1013.1 |
| 20260506140541 | 15 | 112 | 0.0 | 0.0 | 0.30 | 0.38 | 0.36 | 92 | 1013.0 |
| 20260506135542 | 15 | 157 | 0.0 | 0.0 | 0.25 | 0.33 | 0.33 | 91 | 1013.1 |
| 20260506134541 | 15 | 204 | 0.0 | 1.6 | 0.23 | 0.28 | 0.28 | 90 | 1013.1 |
| 20260506133540 | 15 | 106 | 0.0 | 0.0 | 0.18 | 0.23 | 0.23 | 90 | 1013.2 |
| 20260506132541 | 15 | 253 | 0.0 | 3.2 | 0.13 | 0.18 | 0.15 | 89 | 1013.6 |
| 20260506131542 | 16 | 326 | 0.0 | 1.6 | 0.08 | 0.10 | 0.10 | 89 | 1013.5 |